Location: Unspecified
(17.6330°N, 0.0000°E)
Time: 10:56:33
(UTC+00:00)

Hubble Space Telescope - Visible Passes

Search period start: 21 May 2019 00:00
Search period end: 31 May 2019 00:00
Orbit: 536 x 540 km, 28.5° (Epoch: 21 May)

Date Brightness Start Highest point End Pass type
(mag) Time Alt. Az. Time Alt. Az. Time Alt. Az.
21 May 2.0 18:47:09 10° NW 18:50:56 34° NNE 18:54:43 10° E visible
21 May 2.0 20:28:09 10° WNW 20:30:53 38° W 20:30:53 38° W visible
22 May 1.8 20:17:46 10° W 20:20:57 38° WSW 20:20:57 38° WSW visible
23 May 1.9 20:07:28 10° W 20:11:02 31° SSW 20:11:02 31° SSW visible
24 May 2.3 19:57:18 10° W 20:00:35 23° SSW 20:01:10 22° SSW visible
25 May 2.8 19:47:20 10° WSW 19:50:02 17° SSW 19:51:20 15° S visible
26 May 3.2 19:37:46 10° SW 19:39:29 12° SSW 19:41:11 10° S visible
